GEC8461 LTFM-EDDF

Flight info

Callsign GEC8461
Flight time N/A
Altitude 38000
Route VADEN1D/35L VADEN N618 BAKLO DCT XANEX DCT UTEKA DCT BABIT DCT GOTAR DCT ABRUK DCT SIMBA DCT AKINI T161 DEBHI DEBHI1B
Aircraft B77L/H-SDE2E3FGHIJ1J3J4J5M1P2RWXYZ/LB1D1

Departure

Time N/A
Airport İstanbul Airport (LTFM)

Arrival

Time 2026-05-04 16:50
Airport Frankfurt Main Airport (EDDF)
Time Latitude Longitude Altitude Speed Heading
2026-05-04 14:52 43.10675 25.03384 38073 ft 478 kts 298°
2026-05-04 14:52 43.13638 24.95239 38074 ft 479 kts 296°
2026-05-04 14:53 43.16313 24.86862 38081 ft 480 kts 295°
2026-05-04 14:53 43.18922 24.78489 38067 ft 481 kts 295°
2026-05-04 14:54 43.21561 24.70056 38090 ft 481 kts 294°
2026-05-04 14:54 43.24209 24.61629 38090 ft 482 kts 295°
2026-05-04 14:55 43.26879 24.53128 38097 ft 482 kts 295°
2026-05-04 14:55 43.29527 24.44668 38092 ft 482 kts 295°
2026-05-04 14:56 43.32144 24.36275 38092 ft 480 kts 294°
2026-05-04 14:56 43.34764 24.27842 38089 ft 479 kts 294°
2026-05-04 14:57 43.37371 24.19427 38087 ft 478 kts 294°
2026-05-04 14:57 43.39960 24.11042 38070 ft 476 kts 294°
2026-05-04 14:58 43.42538 24.02668 38080 ft 475 kts 294°
2026-05-04 14:58 43.44382 23.96661 38078 ft 474 kts 294°
2026-05-04 14:59 43.47337 23.87005 38079 ft 474 kts 294°
2026-05-04 15:00 43.51156 23.74467 38072 ft 473 kts 295°
2026-05-04 15:00 43.53698 23.66092 38085 ft 473 kts 294°
2026-05-04 15:01 43.57497 23.53522 38052 ft 474 kts 294°
2026-05-04 15:01 43.60029 23.45113 38073 ft 475 kts 294°
2026-05-04 15:02 43.62559 23.36679 38068 ft 477 kts 294°
2026-05-04 15:02 43.65096 23.28195 38064 ft 479 kts 294°
2026-05-04 15:03 43.67631 23.19688 38049 ft 479 kts 294°
2026-05-04 15:03 43.70092 23.11402 38055 ft 480 kts 294°
2026-05-04 15:04 43.72448 23.03447 38054 ft 480 kts 294°
2026-05-04 15:04 43.74699 22.95820 38065 ft 480 kts 294°
2026-05-04 15:05 43.76626 22.89275 38049 ft 479 kts 294°
2026-05-04 15:05 43.79007 22.81157 38054 ft 477 kts 294°
2026-05-04 15:06 43.81495 22.72653 38057 ft 475 kts 294°
2026-05-04 15:07 43.85194 22.59957 38060 ft 473 kts 294°
2026-05-04 15:07 43.87648 22.51497 38066 ft 472 kts 294°
2026-05-04 15:08 43.90151 22.43116 38060 ft 469 kts 298°
2026-05-04 15:08 43.93506 22.35453 38065 ft 466 kts 308°
2026-05-04 15:09 43.97658 22.28541 38079 ft 466 kts 313°
2026-05-04 15:09 44.01932 22.21721 38073 ft 468 kts 313°
2026-05-04 15:10 44.08314 22.11425 38072 ft 469 kts 312°
2026-05-04 15:11 44.14666 22.01060 38075 ft 469 kts 312°
2026-05-04 15:11 44.18895 21.94131 38081 ft 469 kts 312°
2026-05-04 15:12 44.23115 21.87201 38090 ft 468 kts 312°
2026-05-04 15:12 44.27289 21.80332 38099 ft 467 kts 312°
2026-05-04 15:13 44.31485 21.73410 38084 ft 466 kts 312°
2026-05-04 15:13 44.35663 21.66500 38095 ft 465 kts 312°
2026-05-04 15:14 44.39834 21.59587 38093 ft 465 kts 312°
2026-05-04 15:14 44.44000 21.52665 38094 ft 464 kts 312°
2026-05-04 15:15 44.48155 21.45746 38085 ft 464 kts 312°
2026-05-04 15:15 44.52316 21.38798 38092 ft 466 kts 311°
2026-05-04 15:16 44.58564 21.28335 38094 ft 468 kts 311°
2026-05-04 15:17 44.64825 21.17810 38096 ft 468 kts 311°
2026-05-04 15:17 44.71077 21.07261 38085 ft 467 kts 311°
2026-05-04 15:18 44.75203 21.00278 38088 ft 466 kts 311°
2026-05-04 15:19 44.81395 20.89764 38094 ft 463 kts 311°
2026-05-04 15:19 44.87536 20.79300 38085 ft 460 kts 311°
2026-05-04 15:20 44.91600 20.72354 38086 ft 458 kts 311°
2026-05-04 15:20 44.93981 20.68275 38091 ft 457 kts 311°
2026-05-04 15:21 44.97372 20.62433 38072 ft 457 kts 311°
2026-05-04 15:22 45.03437 20.52019 38092 ft 457 kts 311°
2026-05-04 15:22 45.09219 20.42043 38089 ft 459 kts 311°
2026-05-04 15:23 45.13262 20.35041 38077 ft 460 kts 311°
2026-05-04 15:23 45.17311 20.28012 38088 ft 461 kts 310°
2026-05-04 15:24 45.25397 20.13922 38085 ft 462 kts 310°
2026-05-04 15:25 45.29453 20.06827 38076 ft 463 kts 310°
2026-05-04 15:26 45.34708 19.97605 38080 ft 462 kts 310°
2026-05-04 15:26 45.40722 19.87019 38083 ft 461 kts 310°
2026-05-04 15:27 45.46759 19.76353 38072 ft 461 kts 310°
2026-05-04 15:28 45.52768 19.65694 38079 ft 459 kts 310°
2026-05-04 15:29 45.58760 19.55026 38070 ft 458 kts 310°
2026-05-04 15:30 45.70696 19.33646 38080 ft 458 kts 309°
2026-05-04 15:31 45.72677 19.30313 37855 ft 446 kts 334°
2026-05-04 15:31 45.75391 19.29369 37577 ft 438 kts 354°
2026-05-04 15:32 45.82649 19.22445 38013 ft 451 kts 294°
2026-05-04 15:32 45.84705 19.13938 38050 ft 456 kts 299°
2026-05-04 15:34 45.92808 18.94032 38066 ft 463 kts 299°
2026-05-04 15:34 45.97583 18.82007 38070 ft 461 kts 302°
2026-05-04 15:35 46.02526 18.70240 38050 ft 459 kts 302°
2026-05-04 15:36 46.07412 18.58374 38045 ft 459 kts 301°
2026-05-04 15:36 46.10647 18.50445 38057 ft 459 kts 301°
2026-05-04 15:37 46.13875 18.42509 38060 ft 459 kts 301°
2026-05-04 15:37 46.17096 18.34573 38065 ft 459 kts 301°
2026-05-04 15:38 46.20318 18.26610 38059 ft 459 kts 301°
2026-05-04 15:38 46.23539 18.18631 38052 ft 460 kts 301°
2026-05-04 15:39 46.26753 18.10644 38032 ft 460 kts 301°
2026-05-04 15:40 46.31576 17.98614 38048 ft 461 kts 301°
2026-05-04 15:40 46.34763 17.90636 38043 ft 461 kts 301°
2026-05-04 15:41 46.37970 17.82583 38046 ft 461 kts 301°
2026-05-04 15:41 46.41163 17.74543 38046 ft 461 kts 301°
2026-05-04 15:42 46.44356 17.66481 38023 ft 461 kts 300°
2026-05-04 15:42 46.47546 17.58399 38040 ft 461 kts 300°
2026-05-04 15:43 46.50723 17.50331 38034 ft 461 kts 300°
2026-05-04 15:43 46.53874 17.42300 38026 ft 460 kts 300°
2026-05-04 15:44 46.57040 17.34210 38026 ft 460 kts 300°
2026-05-04 15:44 46.60196 17.26122 38021 ft 460 kts 300°
2026-05-04 15:45 46.63349 17.18017 38022 ft 460 kts 299°
2026-05-04 15:45 46.66490 17.09915 38020 ft 459 kts 299°
2026-05-04 15:46 46.69621 17.01819 38019 ft 458 kts 299°
2026-05-04 15:46 46.72738 16.93736 38021 ft 457 kts 299°
2026-05-04 15:47 46.75848 16.85644 38007 ft 457 kts 299°
2026-05-04 15:47 46.78949 16.77553 38011 ft 457 kts 299°
2026-05-04 15:48 46.82043 16.69454 38014 ft 456 kts 298°
2026-05-04 15:48 46.86648 16.57357 38006 ft 456 kts 298°
2026-05-04 15:49 46.89731 16.49229 38001 ft 456 kts 298°
2026-05-04 15:49 46.92801 16.41108 38004 ft 456 kts 298°
2026-05-04 15:50 46.95859 16.32994 37983 ft 456 kts 298°
2026-05-04 15:50 46.98915 16.24866 37999 ft 455 kts 298°
2026-05-04 15:51 47.01776 16.16592 38007 ft 455 kts 295°
2026-05-04 15:51 47.04002 16.09629 37996 ft 455 kts 294°
2026-05-04 15:52 47.06677 16.01209 37992 ft 455 kts 294°
2026-05-04 15:52 47.09363 15.92790 37991 ft 455 kts 294°
2026-05-04 15:53 47.12043 15.84396 38000 ft 456 kts 295°
2026-05-04 15:53 47.14727 15.75970 37980 ft 456 kts 294°
2026-05-04 15:54 47.17390 15.67581 38000 ft 456 kts 294°
2026-05-04 15:54 47.20066 15.59122 38000 ft 456 kts 294°
2026-05-04 15:55 47.22734 15.50658 37976 ft 456 kts 294°
2026-05-04 15:55 47.25391 15.42201 37996 ft 455 kts 294°
2026-05-04 15:56 47.28044 15.33729 37999 ft 455 kts 294°
2026-05-04 15:56 47.30691 15.25247 38002 ft 455 kts 293°
2026-05-04 15:57 47.33330 15.16760 38001 ft 456 kts 293°
2026-05-04 15:57 47.35972 15.08241 37989 ft 456 kts 293°
2026-05-04 15:58 47.38695 14.99796 38008 ft 457 kts 297°
2026-05-04 15:58 47.42079 14.91921 37960 ft 458 kts 301°
2026-05-04 15:59 47.45601 14.84028 37984 ft 458 kts 301°
2026-05-04 15:59 47.49061 14.76194 37982 ft 458 kts 301°
2026-05-04 16:00 47.52522 14.68285 37974 ft 458 kts 301°
2026-05-04 16:00 47.55967 14.60360 37970 ft 457 kts 301°
2026-05-04 16:01 47.58884 14.53639 37954 ft 457 kts 301°
2026-05-04 16:01 47.62313 14.45723 37949 ft 456 kts 301°
2026-05-04 16:02 47.65736 14.37796 37952 ft 456 kts 300°
2026-05-04 16:03 47.70854 14.25898 37931 ft 456 kts 300°
2026-05-04 16:03 47.74261 14.17948 37939 ft 456 kts 300°
2026-05-04 16:04 47.77665 14.09982 37930 ft 457 kts 300°
2026-05-04 16:04 47.82761 13.98014 37924 ft 457 kts 300°
2026-05-04 16:05 47.85630 13.91253 37926 ft 457 kts 300°
2026-05-04 16:06 47.90725 13.79206 37913 ft 458 kts 300°
2026-05-04 16:07 47.97501 13.63096 37914 ft 458 kts 300°
2026-05-04 16:08 48.03857 13.47900 37897 ft 458 kts 300°
2026-05-04 16:09 48.09917 13.33332 37900 ft 457 kts 300°
2026-05-04 16:10 48.17305 13.17894 37899 ft 460 kts 308°
2026-05-04 16:11 48.25006 13.02657 37906 ft 457 kts 297°
2026-05-04 16:12 48.34272 12.77580 37905 ft 458 kts 297°
2026-05-04 16:13 48.40479 12.60864 37906 ft 457 kts 297°
2026-05-04 16:14 48.46646 12.44150 37913 ft 456 kts 296°
2026-05-04 16:16 48.54291 12.23277 37921 ft 456 kts 296°
2026-05-04 16:17 48.61917 12.02288 37940 ft 457 kts 296°
2026-05-04 16:18 48.68007 11.85406 37942 ft 458 kts 296°
2026-05-04 16:19 48.75741 11.64265 37931 ft 461 kts 302°
2026-05-04 16:20 48.83465 11.48927 37942 ft 462 kts 304°
2026-05-04 16:22 48.93093 11.29659 37294 ft 457 kts 304°
2026-05-04 16:22 48.98825 11.18064 35884 ft 450 kts 304°
2026-05-04 16:23 49.04172 11.07264 34438 ft 440 kts 305°
2026-05-04 16:24 49.11753 10.92922 32358 ft 426 kts 303°
2026-05-04 16:25 49.14785 10.86652 31542 ft 418 kts 302°
2026-05-04 16:26 49.20985 10.73652 29778 ft 406 kts 303°
2026-05-04 16:26 49.25514 10.64226 28440 ft 397 kts 302°
2026-05-04 16:27 49.28656 10.57682 27537 ft 390 kts 302°
2026-05-04 16:28 49.32796 10.49037 26373 ft 383 kts 302°
2026-05-04 16:28 49.37172 10.39864 25175 ft 376 kts 302°
2026-05-04 16:29 49.42744 10.28125 23247 ft 394 kts 302°
2026-05-04 16:30 49.47466 10.18150 21997 ft 400 kts 302°
2026-05-04 16:31 49.49912 10.12970 21601 ft 397 kts 302°
2026-05-04 16:31 49.54335 10.04054 20648 ft 382 kts 306°
2026-05-04 16:32 49.58633 9.96151 18697 ft 378 kts 306°
2026-05-04 16:33 49.61868 9.90161 17277 ft 372 kts 306°
2026-05-04 16:33 49.64531 9.85186 16143 ft 366 kts 306°
2026-05-04 16:34 49.67395 9.79804 15162 ft 365 kts 306°
2026-05-04 16:34 49.68788 9.77179 14760 ft 363 kts 306°
2026-05-04 16:35 49.72510 9.70154 13644 ft 358 kts 306°
2026-05-04 16:35 49.75524 9.64452 12686 ft 354 kts 306°
2026-05-04 16:36 49.76837 9.61965 12294 ft 352 kts 306°
2026-05-04 16:36 49.78139 9.59467 12000 ft 346 kts 305°
2026-05-04 16:37 49.80432 9.55110 11280 ft 342 kts 306°
2026-05-04 16:37 49.81665 9.52766 10923 ft 341 kts 306°
2026-05-04 16:37 49.84223 9.47907 10507 ft 327 kts 306°
2026-05-04 16:38 49.86522 9.43538 10255 ft 312 kts 306°
2026-05-04 16:39 49.90206 9.36502 9742 ft 291 kts 305°
2026-05-04 16:39 49.92722 9.31671 9104 ft 285 kts 306°
2026-05-04 16:40 49.95210 9.26893 8201 ft 286 kts 306°
2026-05-04 16:40 49.97315 9.22951 7545 ft 282 kts 313°
2026-05-04 16:41 50.00616 9.19955 6993 ft 268 kts 334°
2026-05-04 16:41 50.05655 9.16487 6015 ft 262 kts 334°
2026-05-04 16:42 50.10614 9.13145 5102 ft 254 kts 335°
2026-05-04 16:43 50.13681 9.10679 5030 ft 250 kts 314°
2026-05-04 16:43 50.14743 9.06072 5007 ft 223 kts 257°
2026-05-04 16:43 50.14425 9.03711 5018 ft 224 kts 256°
2026-05-04 16:44 50.12598 8.94638 5013 ft 217 kts 248°
2026-05-04 16:45 50.11521 8.90121 4576 ft 226 kts 248°
2026-05-04 16:46 50.09926 8.83436 3726 ft 217 kts 250°
2026-05-04 16:46 50.08862 8.78974 3127 ft 220 kts 251°
2026-05-04 16:47 50.07810 8.74565 2516 ft 215 kts 251°
2026-05-04 16:47 50.06818 8.70421 1951 ft 189 kts 252°
2026-05-04 16:48 50.05500 8.64898 1252 ft 166 kts 251°
2026-05-04 16:48 50.05118 8.63307 1006 ft 150 kts 253°
2026-05-04 16:49 50.04427 8.60432 634 ft 134 kts 251°
2026-05-04 16:49 50.03781 8.57700 369 ft 133 kts 251°
2026-05-04 16:50 50.03354 8.55921 357 ft 33 kts 250°
2026-05-04 16:50 50.03332 8.55330 355 ft 20 kts 279°
2026-05-04 16:51 50.03366 8.55051 350 ft 11 kts 280°
2026-05-04 16:51 50.03358 8.54911 354 ft 16 kts 254°
2026-05-04 16:51 50.03278 8.54580 352 ft 12 kts 249°
2026-05-04 16:52 50.03323 8.54472 352 ft 8 kts 340°
2026-05-04 16:52 50.03363 8.54450 349 ft 4 kts 340°
2026-05-04 16:53 50.03492 8.54380 349 ft 15 kts 340°
2026-05-04 16:53 50.03628 8.54302 354 ft 3 kts 342°
2026-05-04 16:54 50.03649 8.54315 352 ft 4 kts 45°
2026-05-04 16:55 50.03835 8.54338 356 ft 8 kts 13°
2026-05-04 16:55 50.03889 8.54474 356 ft 8 kts 71°
2026-05-04 16:56 50.03926 8.54634 363 ft 8 kts 70°
2026-05-04 16:56 50.04021 8.54607 358 ft 4 kts 247°
2026-05-04 16:57 50.04011 8.54574 358 ft 3 kts 248°
2026-05-04 16:57 50.04002 8.54539 359 ft 0 kts 248°